DECAYED

STARLINK-1213, 45400 (Decayed)

Orbit data source: Space-Track

STARLINK-1213, 45400 was a payload satellite owned by SpaceX/Seattle (US) in LEO that was launched on Wed, 18 Mar 2020 UTC via an FALCON 9 launch vehicle from the Air Force Eastern Test Range (AFETR). Payload-class satellites include a variety of spacecraft equipped with specific instruments for various scientific and technological missions. These include communications satellites like Starlink; space stations such as the ISS; scientific satellites like the Hubble; Earth observation satellites from companies like Planet Labs, Umbra, and HawkEye 360; GPS; miniature CubeSats for education and research; and military/defense satellites.

Not visible in the next 10 days
Identifier
45400, 2020-019AS
Orbit
Decayed
Country
Flag of USUS
Related business
Manufacturer
SpaceX/Seattle
Mission
Decayed Commercial Communications
Bus & Motor
STARLINK, Unknown motor
Mass
260 kg wet, ~248 kg dry
Launch date (UTC)
2020-03-18 (6 years ago)
Launch vehicle
FALCON 9
Launch site
Air Force Eastern Test Range (AFETR)
Object type
Payload
Rocket body
Debris
Shape & HBR
Box + 1 Pan, 10.1 m
Radar Cross Section
13.562 m², Large (>1 m²)

Expand to show TLE details & history
Last TLE update: 1 year ago

TLE from 1 year ago
0 STARLINK-1213
1 45400U 20019AS  25058.43883204  .13884536  12429-4  17296-3 0  9995
2 45400  53.0409 248.9699 0010614 177.8338 266.8686 16.48892590275202
Epoch: 2025-02-27T10:31Z
TLE epoch observation values (Epoch: 2025-02-27T10:31:55.088Z)
Latitude
52.8608°
Longitude
14.4998°
Altitude
149.039 km
Speed
7.823 km/s
True Right ascension
21h 59m 58s
True Declination
52° 40' 47"
Sunlit
Object was in daylight at epoch
Visualization orbit readout
Latitude
Unknown
Longitude
Unknown
Altitude
Unknown
Speed
Unknown
Apparent Right ascension
Unknown
Apparent Declination
Unknown
Sunlit
N/A
Visualization observer readout
Local Sidereal Time
03:04:24
Azimuth
Unknown
Elevation
Unknown
Doppler factor
Unknown
Orbital elements
Apogee altitude
149.464 km
Perigee altitude
135.622 km
Semi-major axis
6,520.68 km
Eccentricity
0.00106
Inclination
53.0409°
RAAN
248.9699°
Arg. of periapsis
177.8338°
True anomaly
266.74716°
Mean anomaly
266.8686°
Eccentric anomaly
266.80788°
Mean motion
4.12196 °/min
Orbital period
87.34 mins
BSTAR
0.00017296
Loading maneuver chart data...
Computing Atmospheric mass density...
Loading historical data...
Loading historical data...
Loading historical data...
Loading historical data...
Loading historical data...
Loading historical data...
Loading historical data...

Documentation

Showing up to 5 results
|